Location: Domont
(49.0278°N, 2.3264°E)
Time: 01:19:24
(UTC+00:00)

ZACube-1 - Pass Details

Date: 09 July 2022
Orbit: 582 x 661 km, 97.6° (Epoch: 08 August)

Event Time Altitude Azimuth Distance (km) Brightness Sun altitude
Rises 02:56:44 0° 23° (NNE) 2,982 ? -8.0°
Reaches altitude 10° 02:59:16 10° 36° (NE) 2,075 ? -7.8°
Maximum altitude 03:03:06 27° 93° (E) 1,281 ? -7.3°
Drops below altitude 10° 03:06:56 10° 151° (SSE) 2,075 ? -6.9°
Sets 03:09:27 0° 164° (SSE) 2,983 ? -6.6°
